Snowfall_Accumulation
0.0 0.0 0.0 0.0 0.0 0.0 0.0 0.0 0.0 0.0 0.0 0.0 0.0 0.0 0.0 0.0 0.0 0.0 0.0 0.0 0.0 15.1 5.1 3.5 4.9 7.0 8.3 8.9 12.0 9.7 13.3 14.6 16.7 23.5 16.5 9.4 7.8 4.7 3.5 2.6 2.6 2.6 4.3 6.0 11.1 21.2 9.7 0.7 0.2 1.5 1.2 0.1 0.1 0.0
0.0 0.0 0.0 0.0 0.0 0.0 0.0 0.0 0.0 0.0 0.0 0.0 0.0 0.0 0.0 0.0 0.0 0.0 0.0 0.0 0.0 9.5 10.3 0.0 0.0 0.0 6.3 7.1 8.9 10.8 13.1 9.2 9.5 15.6 15.4 8.5 7.1 5.8 3.2 4.6 1.6 4.8 3.6 3.1 2.1 2.3 0.5 0.8 1.1 1.0 0.6 0.3 0.0 0.2
0.0 0.0 0.0 0.0 0.0 0.0 0.0 0.0 0.0 0.0 0.0 0.0 0.0 0.0 0.0 0.0 0.0 0.0 0.0 0.0 0.0 18.5 11.7 3.6 3.8 1.6 0.2 3.3 1.3 15.2 12.0 8.6 9.3 6.0 11.8 12.0 12.9 7.2 6.2 4.5 2.4 1.7 2.9 4.0 3.5 1.7 0.4 0.1 0.7 0.4 0.0 0.1 0.0 0.1
0.0 0.0 0.0 0.0 0.0 0.0 0.0 0.0 0.0 0.0 0.0 0.0 0.0 0.0 0.0 0.0 0.0 0.0 0.0 0.0 0.0 14.4 19.8 5.6 0.0 1.4 0.0 0.0 0.0 2.5 5.0 4.9 7.8 9.3 21.8 19.7 14.9 3.5 2.8 1.7 1.8 1.3 0.9 1.4 2.8 3.4 1.6 1.4 0.6 0.5 0.3 0.0 0.0 0.0
0.0 0.0 0.0 0.0 0.0 0.0 0.0 0.0 0.0 0.0 0.0 0.0 0.0 0.0 0.0 0.0 0.0 0.0 0.0 0.0 0.0 4.2 16.1 5.1 1.8 1.8 0.0 0.0 0.0 0.0 1.1 4.9 15.1 22.4 27.1 19.0 8.2 8.0 6.4 5.0 4.7 2.7 2.4 1.5 0.8 0.3 1.4 0.5 0.2 0.1 1.2 0.6 0.3 0.1
0.0 0.0 0.0 0.0 0.0 0.0 0.0 0.0 0.0 0.0 0.0 0.0 0.0 0.0 0.0 0.0 0.0 0.0 10.5 0.0 0.0 0.0 26.1 16.4 3.0 2.6 0.6 0.0 0.3 1.3 0.9 7.0 14.4 19.7 19.9 11.1 6.1 8.0 14.4 6.1 2.6 2.6 2.8 3.1 3.1 1.5 1.7 1.1 1.0 0.9 1.6 1.2 0.9 0.4
0.0 0.0 0.0 0.0 0.0 0.0 0.0 0.0 0.0 0.0 0.0 0.0 0.0 0.0 0.0 0.0 0.0 13.5 5.2 0.5 0.0 0.0 28.2 20.7 9.3 3.4 1.7 0.6 0.9 1.3 1.7 4.0 10.3 17.8 13.8 7.9 5.8 11.3 17.7 6.5 2.4 2.6 2.9 3.5 4.7 4.1 3.3 3.2 3.4 1.7 2.1 2.5 2.9 2.0
0.0 0.0 0.0 0.0 0.0 0.0 0.0 0.0 0.0 0.0 0.0 0.0 0.0 0.0 0.0 0.0 0.0 7.8 2.0 0.0 0.0 7.0 25.0 27.9 10.9 4.8 2.2 5.6 4.6 1.3 5.7 8.9 10.1 9.9 4.6 2.2 2.8 10.2 11.2 2.7 3.0 3.1 3.1 2.8 3.4 3.7 4.1 4.9 4.5 4.3 3.9 3.5 3.6 4.2
0.0 0.0 0.0 0.0 0.0 0.0 0.0 0.0 0.0 0.0 0.0 0.0 0.0 0.0 0.0 3.3 7.6 5.8 0.0 0.0 0.0 7.3 22.1 17.3 8.3 6.8 1.3 3.7 4.2 5.6 6.0 15.6 5.9 7.1 1.6 1.6 3.8 6.8 1.8 2.4 2.6 2.7 3.4 3.8 4.2 4.0 4.4 3.6 3.4 3.6 3.7 3.8 3.1 4.2
0.0 0.0 0.0 0.0 0.0 0.0 0.0 0.0 0.0 0.0 0.0 0.0 0.0 12.7 28.0 8.7 0.0 0.0 2.3 16.5 23.6 22.1 17.9 9.5 5.9 7.0 3.7 5.9 6.3 5.6 7.7 7.2 8.7 2.1 0.2 6.7 0.8 1.1 1.9 3.1 3.9 4.3 4.1 4.9 5.2 7.1 4.6 4.2 2.7 3.4 3.6 3.8 3.1 3.5
0.0 0.0 0.0 0.0 0.0 0.0 0.0 0.0 0.0 0.0 0.0 2.1 23.7 21.3 6.3 1.0 1.7 7.8 35.3 33.1 22.8 16.4 6.2 5.2 5.2 4.7 1.0 7.8 7.3 4.8 12.2 7.8 10.2 5.9 3.5 4.8 4.0 6.6 5.2 5.1 5.7 4.7 4.7 4.9 5.1 5.6 6.0 7.3 6.8 4.8 4.1 3.4 2.8 2.9
0.0 0.0 0.0 0.0 0.0 0.0 0.0 0.0 0.0 0.2 0.6 0.2 0.0 0.8 4.4 13.2 38.1 38.2 26.6 14.0 4.4 2.8 2.3 6.3 5.3 2.7 4.2 2.4 9.3 8.2 9.8 9.3 8.5 8.4 12.4 5.7 6.1 3.2 5.4 6.9 5.9 4.5 5.1 5.1 5.4 6.3 6.3 5.7 6.5 7.1 5.6 5.3 4.9 4.7
0.0 0.0 0.0 0.0 0.0 0.0 0.0 0.0 0.0 0.0 0.0 1.8 19.2 37.4 37.8 37.8 33.7 21.3 8.6 6.4 2.8 4.0 4.8 6.7 5.8 5.8 8.0 10.0 14.2 9.6 11.0 5.6 1.3 7.6 6.1 5.7 3.3 3.8 4.8 5.5 4.9 6.0 8.3 7.0 6.3 6.5 7.1 6.9 6.4 7.5 7.3 5.0 4.8 4.6
0.0 0.0 0.0 0.0 0.0 0.0 0.0 0.0 0.0 0.7 5.4 20.5 38.5 36.0 26.2 24.0 9.3 5.7 4.2 3.8 2.4 1.8 1.6 3.1 4.8 8.2 9.0 15.2 14.1 13.4 6.3 5.1 8.4 6.7 5.1 2.2 2.7 3.5 3.9 3.8 4.4 4.2 6.1 6.8 7.7 7.2 7.5 7.8 6.9 6.4 6.0 4.9 4.6 3.5
0.0 0.0 0.0 0.0 0.0 0.0 0.0 0.0 0.0 1.1 9.2 36.7 30.0 21.5 13.4 5.9 5.0 5.6 5.0 3.1 2.5 3.2 5.5 6.4 8.7 7.8 9.8 18.2 11.3 6.7 8.3 8.3 8.0 5.4 3.0 1.7 2.1 2.5 2.6 2.8 3.4 4.0 5.3 5.7 5.0 4.6 6.2 6.2 6.7 5.6 4.6 4.7 4.0 3.7
0.0 0.0 0.0 0.0 0.0 0.0 0.0 0.0 3.1 7.7 29.4 33.0 23.3 9.7 2.3 2.3 3.6 3.7 4.7 5.3 4.7 5.0 7.6 11.1 15.2 13.9 10.2 11.6 10.3 6.6 7.3 5.1 4.8 2.8 1.4 1.6 1.6 1.4 1.9 1.8 2.7 4.2 4.6 6.0 7.1 4.7 4.3 6.2 6.0 4.7 3.8 3.9 3.6 3.1
0.0 2.4 0.0 0.0 0.0 0.0 1.0 1.0 11.9 39.8 34.8 27.1 11.3 2.8 3.0 3.4 5.3 5.6 6.2 7.1 7.5 10.8 15.8 18.1 17.7 8.6 9.3 8.5 6.3 3.9 4.1 3.0 2.8 2.1 1.5 1.3 2.2 2.3 2.2 1.8 2.1 3.1 3.0 4.7 7.3 5.2 5.3 6.8 7.8 6.6 4.7 3.6 3.1 3.5
0.6 0.0 0.0 0.0 0.8 2.7 9.7 17.3 30.0 44.7 30.7 9.7 3.7 2.4 2.1 3.2 4.0 5.0 6.4 7.6 12.0 15.9 18.3 21.7 13.4 11.0 6.5 4.2 2.0 2.7 3.1 3.1 3.2 3.8 3.7 3.0 2.5 2.2 2.3 2.2 2.1 2.6 3.8 5.3 7.5 6.3 6.5 7.2 7.0 5.8 4.7 5.2 4.8 5.0
0.8 0.0 0.1 0.0 1.0 10.2 47.5 43.1 29.2 28.3 7.7 2.6 2.2 2.2 2.4 3.1 3.8 5.1 5.8 8.0 10.2 11.0 14.3 18.5 16.6 7.6 3.3 2.9 3.2 2.7 4.3 5.3 5.8 5.0 4.4 4.1 3.2 2.7 2.4 2.8 2.7 2.1 2.7 4.2 4.6 5.4 5.8 5.4 5.0 6.0 4.8 3.8 4.8 4.6
0.0 0.1 0.0 0.1 0.0 40.5 49.3 39.8 19.9 9.9 4.4 1.9 2.5 2.9 2.5 2.6 3.4 4.4 6.7 9.3 11.7 13.1 16.8 13.7 3.1 3.3 4.1 3.8 5.2 5.5 4.4 4.6 6.2 5.8 4.5 4.4 4.4 3.6 3.5 3.0 2.7 2.6 2.4 3.3 4.2 4.6 6.7 5.9 6.0 6.8 5.9 5.5 6.1 5.6
6.6 14.5 7.8 6.4 26.3 44.1 38.9 26.2 12.7 6.7 2.7 2.9 3.5 2.2 2.7 3.0 3.5 5.5 6.5 8.6 14.5 14.3 6.9 4.0 3.6 3.9 4.8 5.0 4.9 5.6 4.7 5.3 6.9 8.1 7.2 6.5 5.5 5.5 5.6 3.8 2.5 2.3 2.8 3.2 4.1 5.2 7.5 6.3 6.0 5.8 6.0 6.0 6.3 7.2
21.8 15.9 27.4 27.3 55.9 53.3 36.6 17.6 8.5 4.7 3.1 3.5 3.2 2.5 3.8 4.4 4.9 6.2 7.4 9.3 10.7 5.6 4.4 5.4 5.7 5.4 4.3 4.6 6.3 7.0 7.5 6.4 6.3 6.6 6.3 7.7 7.2 5.8 6.6 5.7 3.4 3.3 3.6 4.9 5.6 6.4 6.3 6.6 7.3 7.8 7.3 7.9 7.6 8.3
15.5 24.5 56.7 55.2 51.1 44.1 25.3 9.7 4.5 4.6 4.2 5.0 3.7 4.5 5.1 4.6 4.6 5.2 7.1 6.1 5.0 5.7 5.6 6.5 6.5 7.8 7.2 7.1 7.0 7.0 7.6 7.0 5.8 5.5 5.9 5.7 5.6 5.8 6.6 6.6 6.7 8.0 7.1 7.8 8.1 8.5 7.8 7.9 8.0 7.2 7.0 6.5 5.6 7.1
11.2 55.4 58.6 50.0 37.1 26.8 16.3 12.1 8.9 5.1 6.4 5.4 4.8 5.0 4.8 3.5 4.4 5.4 4.9 3.7 4.7 5.4 4.8 5.1 5.5 4.9 4.4 4.7 5.4 6.4 7.8 7.5 6.0 5.0 6.7 7.9 4.7 4.7 5.0 6.2 7.2 8.5 9.1 8.8 8.2 7.8 7.0 7.6 8.1 7.9 6.6 6.7 6.1 5.3
66.6 68.2 50.4 41.7 24.9 12.9 7.2 5.6 4.4 3.9 3.7 4.0 4.1 4.4 4.3 3.9 4.8 5.1 3.3 3.9 4.3 4.7 5.1 5.3 5.1 6.2 6.7 4.1 5.1 5.7 6.7 9.4 9.2 7.5 4.8 8.7 8.1 5.5 4.6 4.7 5.4 6.4 7.8 8.2 7.0 6.2 6.4 7.2 7.7 7.0 7.5 6.8 6.3 5.9
58.0 35.9 24.5 11.0 6.2 2.3 1.6 1.6 1.6 1.5 1.8 4.1 4.4 2.8 2.6 5.1 6.2 4.1 3.4 4.1 4.1 4.4 5.2 5.3 5.5 4.2 3.6 6.0 7.0 6.3 6.3 8.9 9.9 7.4 4.9 7.8 10.4 11.8 8.7 6.8 5.4 4.9 7.2 7.6 8.2 6.8 6.3 5.6 5.8 6.0 7.7 7.6 6.2 6.2
43.6 24.3 10.5 2.7 1.5 1.5 1.8 1.7 1.9 3.1 4.3 4.6 3.3 2.6 4.1 7.0 2.7 3.2 4.3 5.0 5.1 4.6 5.4 5.9 6.6 7.0 5.9 4.7 4.5 5.3 8.3 10.7 12.8 10.1 8.5 8.7 8.3 9.7 11.3 11.5 8.3 6.4 9.6 10.5 9.3 6.8 6.5 5.3 4.6 3.4 4.7 5.2 5.6 5.3
17.0 7.0 2.8 3.6 4.2 4.1 5.4 4.7 4.4 3.9 4.4 3.7 4.0 4.1 5.3 4.1 2.8 3.3 4.0 4.1 4.8 4.8 5.4 6.0 6.7 7.1 8.2 7.8 8.0 8.0 8.3 9.4 9.1 7.9 7.0 6.7 7.1 7.2 7.9 9.1 9.5 10.2 9.9 8.3 8.5 8.1 6.9 5.5 5.4 4.9 4.4 4.4 5.5 5.6
4.8 2.7 2.6 3.7 4.9 6.0 6.3 4.8 4.5 4.0 3.7 3.9 3.5 2.7 2.5 2.1 3.5 3.8 3.5 4.0 3.7 4.1 4.1 5.0 4.1 5.8 6.7 7.3 8.0 9.6 10.0 10.0 8.7 6.9 6.0 5.3 4.4 4.3 6.6 7.9 8.2 8.3 8.4 9.0 8.8 8.9 8.0 8.1 9.0 9.0 7.3 6.7 7.4 8.1
2.1 2.3 3.7 4.2 5.3 5.6 4.7 5.0 5.0 4.9 5.0 4.8 3.2 2.5 2.4 2.9 4.4 4.5 3.6 3.1 3.1 3.6 4.2 4.7 4.7 4.7 5.1 5.0 5.3 5.7 7.0 7.6 10.7 11.1 9.1 6.6 7.2 9.2 9.7 9.4 8.9 9.0 8.2 7.3 8.7 10.8 9.4 8.1 8.9 8.0 7.1 6.7 6.5 6.5
2.4 2.8 3.1 3.2 3.2 3.1 3.7 3.2 3.2 2.7 3.2 3.1 3.2 3.3 3.3 3.6 3.6 4.1 3.2 3.4 3.6 3.5 3.4 3.2 3.0 4.3 5.2 5.1 6.2 6.1 4.6 5.2 6.6 6.9 7.9 9.3 8.2 8.4 8.9 9.8 9.4 9.4 9.0 8.3 7.0 7.0 6.6 6.1 5.8 5.8 5.7 6.0 6.2 5.8
2.6 2.8 2.6 2.7 2.4 2.8 2.6 2.0 1.6 1.2 1.3 1.4 2.2 2.5 3.0 3.1 2.6 2.0 2.0 1.6 1.5 1.7 3.3 3.9 4.0 4.0 6.1 7.8 8.6 9.8 12.1 10.0 7.0 7.7 8.5 9.0 8.5 8.0 8.6 8.3 9.0 9.0 8.5 7.8 7.1 7.2 6.5 6.5 7.2 6.6 6.7 7.1 6.9 6.3
3.5 2.7 2.3 1.8 2.7 2.5 2.2 1.6 1.5 1.2 1.1 1.0 0.9 1.4 1.6 1.2 1.0 0.9 1.1 2.0 3.4 3.7 3.6 4.5 5.2 6.4 7.4 8.4 8.8 8.9 8.4 7.4 9.1 9.9 10.8 10.7 10.5 9.8 9.0 8.8 9.2 8.2 6.8 6.7 7.3 7.6 7.7 7.0 7.3 6.9 6.7 6.6 6.7 6.5